Regional Weather Roundup
Issued by NWS

Home | Current Version | Previous Version | Graphics & Text | Print | Product List | Glossary On
Versions: 1 2 3 4 5 6 7 8 9 10 11 12 13 14 15 16 17 18 19 20 21 22 23 24 25 26 27 28 29 30 31 32 33 34 35 36 37 38 39 40 41 42 43 44 45 46 47 48 49 50
000
ASUS43 KBIS 211120
RWRND

NORTH DAKOTA REGIONAL WEATHER ROUNDUP
NATIONAL WEATHER SERVICE BISMARCK ND
500 AM CST SUN DEC 21 2014

NOTE: "FAIR" INDICATES FEW OR NO CLOUDS BELOW 12,000 FEET WITH NO
SIGNIFICANT WEATHER AND/OR OBSTRUCTIONS TO VISIBILITY.


NDZ001>003-009>011-017-211200-
NORTHWEST NORTH DAKOTA

CITY           SKY/WX    TMP DP  RH WIND       PRES   REMARKS
WILLISTON      CLEAR     16  13  88 CALM      29.56F
MINOT          CLEAR     20  17  88 CALM      29.60F
MINOT AFB      CLEAR     19  19  98 SW3       29.60F
$$

NDZ018>021-031>035-040>046-211200-
SOUTHWEST NORTH DAKOTA

CITY           SKY/WX    TMP DP  RH WIND       PRES   REMARKS
BISMARCK       CLEAR     13  11  92 NE6       29.68F WCI   4
DICKINSON      CLEAR     27  21  78 S13       29.57F WCI  16
GARRISON         N/A     22  20  92 SE6       29.61F WCI  14
HETTINGER ARPT CLEAR     28  22  78 SE5       29.62F
$$

NDZ004>008-012>016-024-026-027-054-211200-
NORTHEAST NORTH DAKOTA

CITY           SKY/WX    TMP DP  RH WIND       PRES   REMARKS
GRAND FORKS    CLOUDY    30  28  92 S14       29.73F WCI  19
GRND FRKS AFB  CLOUDY    29  29 100 SW14      29.73F WCI  18
DEVILS LAKE    CLEAR     19  12  73 S7        29.64F WCI  10
$$

NDZ022-023-025-028>030-036>039-047>053-211200-
SOUTHEAST NORTH DAKOTA

CITY           SKY/WX    TMP DP  RH WIND       PRES   REMARKS
FARGO          CLOUDY    32  29  88 S13       29.78F
JAMESTOWN      CLEAR     22  18  85 S12       29.70F WCI  10
$$



USA.gov is the U.S. government's official web portal to all federal, state and local government web resources and services.